Weather History for Sexton Summit, OR

Change the Weather History Date:

Saturday, October 26, 2013

  Actual Average Record
Temperature  
Mean Temperature 58 °F -  
Max Temperature 64 °F 50 °F 79 °F (2003)
Min Temperature 51 °F 38 °F 30 °F (1996)
Degree Days  
Heating Degree Days 8    
Growing Degree Days 8 (Base 50)    
Moisture  
Dew Point 35 °F    
Average Humidity 44    
Maximum Humidity 59    
Minimum Humidity 27    
Precipitation  
Precipitation 0.00 in - - ()
Sea Level Pressure  
Sea Level Pressure 30.13 in    
Wind  
Wind Speed 5 mph (NE)    
Max Wind Speed 9 mph    
Max Gust Speed -    
Visibility 10 miles    
Events      
Averages and records for this station are not official NWS values.
T = Trace of Precipitation, MM = Missing Value Source: NWS Daily Summary

Daily Weather History Graph

Daily Weather History Graph

Search for Another Location

Airport:

Trip Planner

Search our weather history database for the weather conditions in past years. The results will help you decide how hot, cold, wet, or windy it might be!

Date:

Astronomy

Oct. 26, 2013 Rise Set
Actual Time 7:40 AM PDT 6:13 PM PDT
Civil Twilight 7:11 AM PDT 6:42 PM PDT
Nautical Twilight 6:38 AM PDT 7:15 PM PDT
Astronomical Twilight 6:05 AM PDT 7:48 PM PDT
Moon No Moon Rise 2:00 PM PDT (10/26)
Length of Visible Light 11h 31m
Length of Day
10h 33m
Waning Gibbous, 52% of the Moon is Illuminated
Oct 26
Waning Gibbous
Oct 26
Last Quarter
Nov 3
New
Nov 9
First Quarter
Nov 17
Full

Hourly Weather History & Observations

Time (PDT) Temp. Dew Point Humidity Pressure Visibility Wind Dir Wind Speed Gust Speed Precip Events Conditions
12:56 AM 57.9 °F 24.1 °F 27% 30.14 in 10.0 mi NNE 5.8 mph - N/A   Clear
1:56 AM 59.0 °F 25.0 °F 27% 30.14 in 10.0 mi ENE 3.5 mph - N/A   Clear
2:56 AM 57.9 °F 30.0 °F 35% 30.15 in 10.0 mi SE 3.5 mph - N/A   Clear
3:56 AM 55.0 °F 36.0 °F 49% 30.14 in 10.0 mi SE 4.6 mph - N/A   Clear
4:56 AM 53.1 °F 39.0 °F 59% 30.16 in 10.0 mi SSE 5.8 mph - N/A   Clear
5:56 AM 55.0 °F 37.0 °F 51% 30.16 in 10.0 mi SE 5.8 mph - N/A   Clear
6:56 AM 55.0 °F 36.0 °F 49% 30.17 in 10.0 mi East 4.6 mph - N/A   Clear
7:56 AM 57.0 °F 35.1 °F 44% 30.17 in 10.0 mi East 3.5 mph - N/A   Clear
8:56 AM 59.0 °F 39.0 °F 48% 30.17 in 10.0 mi Calm Calm - N/A   Clear
9:56 AM 57.9 °F 37.9 °F 47% 30.17 in 10.0 mi SE 9.2 mph - N/A   Clear
10:56 AM 61.0 °F 39.0 °F 44% 30.16 in 10.0 mi ESE 5.8 mph - N/A   Clear
11:56 AM 63.0 °F 37.9 °F 40% 30.14 in 10.0 mi SE 6.9 mph - N/A   Clear
12:56 PM 62.1 °F 36.0 °F 38% 30.14 in 10.0 mi SE 4.6 mph - N/A   Clear
1:56 PM 64.0 °F 37.9 °F 38% 30.10 in 10.0 mi Calm Calm - N/A   Clear
2:56 PM 64.0 °F 35.1 °F 34% 30.10 in 10.0 mi North 3.5 mph - N/A   Clear
3:56 PM 59.0 °F 44.1 °F 58% 30.12 in 10.0 mi North 6.9 mph - N/A   Clear
4:56 PM 57.0 °F 43.0 °F 59% 30.13 in 10.0 mi Variable 4.6 mph - N/A   Clear
5:56 PM 55.0 °F 41.0 °F 59% 30.12 in 10.0 mi NNW 6.9 mph - N/A   Clear
6:56 PM 55.0 °F 35.1 °F 47% 30.11 in 10.0 mi NNW 6.9 mph - N/A   Clear
7:56 PM 54.0 °F 33.1 °F 45% 30.10 in 10.0 mi NNW 9.2 mph - N/A   Clear
8:56 PM 55.0 °F 27.0 °F 34% 30.07 in 10.0 mi NNW 4.6 mph - N/A   Clear
9:56 PM 55.0 °F 30.0 °F 38% 30.06 in 10.0 mi NW 5.8 mph - N/A   Clear
10:56 PM 51.1 °F 33.1 °F 50% 30.06 in 10.0 mi NNW 8.1 mph - N/A   Clear
11:56 PM 52.0 °F 28.0 °F 40% 30.03 in 10.0 mi NW 4.6 mph - N/A   Clear